Вернуться в каталог

SPIN 2

АктивенНаукаSSO
NORAD 66690·PAYLOAD·🇱🇺 Luxembourg
Это название спутника еще не подтверждено официальными источниками.

Запущен Nov 28, 2025 с Vandenberg Space Force Base

Loading…

Ближайшие Пролёты (ближайшие 24 часа)

TLE

СвежийSource: Space-Track

Эпоха: Sep 14, 2026, 04:29 UTC

1 66690U 25276AA  26257.18704743  .00003013  00000-0  14432-3 0  9999
2 66690  97.4108 328.9207 0006010  59.8596 300.3234 15.19686271 43927

Отслеживайте SPIN 2 в реальном времени с AllMySat

Download on the App Store